Stations météo

réclame
Mon MeteoGroup
Bujaraloz, Espagne (8165): Température de l'air & dewpoint: 15.10.2018 17:00:00 - 21.10.2018 17:00:00 (CEST)Bujaraloz, Espagne (8165): Vitesse du vent & gusts: 15.10.2018 17:00:00 - 21.10.2018 17:00:00 (CEST)Bujaraloz, Espagne (8165): Direction du vent: 15.10.2018 17:00:00 - 21.10.2018 17:00:00 (CEST)Bujaraloz, Espagne (8165): reduced air pressure: 15.10.2018 17:00:00 - 21.10.2018 17:00:00 (CEST)Bujaraloz, Espagne (8165): visibility: 15.10.2018 17:00:00 - 21.10.2018 17:00:00 (CEST)Bujaraloz, Espagne (8165): Ensoleillement: 15.10.2018 17:00:00 - 21.10.2018 17:00:00 (CEST)Bujaraloz, Espagne (8165): Quantités de précipitations: 15.10.2018 17:00:00 - 21.10.2018 17:00:00 (CEST)
Date & Time tt [°C] td [°C] ff [km/h] ff [knt] fx [km/h] fx [knt] dd ppp [hPa] vv [km] sd [min] rr [mm]
21.10.2018 17:00:00 - - - - - - - - - - -
21.10.2018 16:00:00 21,5 15,6 7 4 15 8 W 1018,9 20 60 0,0
21.10.2018 15:00:00 20,9 16,3 7 4 13 7 W 1019,6 20 60 0,0
21.10.2018 14:00:00 19,1 15,5 6 3 14 8 SW 1020,7 20 48 -
21.10.2018 13:00:00 17,3 15,6 9 5 14 8 WSW 1021,8 10 32 0,0
21.10.2018 12:00:00 15,3 15,2 4 2 10 6 WNW 1022,6 8 25 0,0
21.10.2018 11:00:00 14,5 14,3 9 5 13 7 W 1022,9 0,8 0 0,0
21.10.2018 10:00:00 14,0 13,9 8 5 11 6 W 1023,1 0,2 0 0,0
21.10.2018 09:00:00 13,4 13,3 7 4 11 6 WNW 1022,8 3,2 0 0,0
21.10.2018 08:00:00 13,7 13,6 7 4 10 5 W 1022,4 0,2 0 -
21.10.2018 07:00:00 13,7 13,6 2 1 5 3 SSW 1022,4 0,2 0 0,0
21.10.2018 06:00:00 14,2 14,0 4 2 9 5 N 1022,4 0,2 0 0,0
21.10.2018 05:00:00 13,4 13,3 6 3 7 4 SSW 1022,4 0,1 0 0,0
21.10.2018 04:00:00 14,3 14,1 5 3 8 4 N 1022,4 0,8 0 0,0
21.10.2018 03:00:00 15,1 14,8 6 3 9 5 NNW 1022,3 2,9 0 0,0
21.10.2018 02:00:00 14,9 14,6 2 1 8 5 SE 1022,3 0,3 0 -
21.10.2018 01:00:00 16,6 15,3 4 2 9 5 SSW 1022,0 15 0 0,0
21.10.2018 00:00:00 16,1 15,4 3 1 9 5 S 1022,3 11 0 0,0
20.10.2018 23:00:00 16,5 15,9 4 2 11 6 SSE 1022,2 8 0 0,0
20.10.2018 22:00:00 16,8 16,3 10 6 13 7 NNE 1021,5 4,7 0 0,0
20.10.2018 21:00:00 18,0 16,0 6 4 10 5 NE 1021,6 16 0 0,0
20.10.2018 20:00:00 19,1 15,3 2 1 5 3 N 1021,0 20 0 -
20.10.2018 19:00:00 19,4 15,9 5 3 10 5 SSW 1020,7 20 41 0,0
20.10.2018 18:00:00 19,8 15,6 5 3 13 7 S 1020,4 20 26 0,0
20.10.2018 17:00:00 20,4 15,6 11 6 19 10 SSW 1020,6 20 60 0,0
20.10.2018 16:00:00 20,2 15,2 10 6 16 9 SSW 1020,6 20 43 0,0
20.10.2018 15:00:00 19,5 16,0 10 5 18 10 SSW 1021,0 20 17 0,0
20.10.2018 14:00:00 18,6 15,4 12 6 19 10 SW 1021,3 20 13 -
20.10.2018 13:00:00 17,6 14,9 9 5 11 6 W 1021,8 20 34 0,0
20.10.2018 12:00:00 17,2 15,3 6 4 11 6 W 1021,8 20 8 0,0
20.10.2018 11:00:00 16,2 15,4 6 3 13 7 W 1022,0 20 9 0,0
20.10.2018 10:00:00 15,6 15,2 7 4 11 6 WNW 1021,3 20 2 0,0
20.10.2018 09:00:00 15,0 14,8 8 4 15 8 W 1020,4 20 0 0,0
20.10.2018 08:00:00 14,9 14,7 11 6 13 7 WNW 1019,8 20 0 -
20.10.2018 07:00:00 15,0 14,7 10 5 11 6 W 1019,5 20 0 0,0
20.10.2018 06:00:00 15,1 14,8 5 3 11 6 WNW 1019,1 20 0 0,0
20.10.2018 05:00:00 14,8 14,6 10 5 11 6 W 1018,5 15 0 0,0
20.10.2018 04:00:00 14,9 14,7 7 4 9 5 W 1018,6 12 0 0,0
20.10.2018 03:00:00 15,1 15,0 4 2 11 6 WNW 1018,5 14 0 0,0
20.10.2018 02:00:00 15,4 14,9 6 3 10 5 NE 1018,4 20 0 -
20.10.2018 01:00:00 15,0 14,7 9 5 14 7 N 1018,0 20 0 1,0
20.10.2018 00:00:00 15,3 14,7 7 4 29 16 ENE 1017,7 6 0 3,0
19.10.2018 23:00:00 15,4 14,8 13 7 18 10 ENE 1017,3 6 0 1,0
19.10.2018 22:00:00 15,2 14,7 12 7 24 13 E 1016,8 19 0 4,0
19.10.2018 21:00:00 15,4 14,2 20 11 37 20 S 1016,2 20 0 0,8
19.10.2018 20:00:00 - - - - - - - - - - -
19.10.2018 19:00:00 19,2 16,4 4 2 10 5 NNE 1014,0 11 0 0,0
19.10.2018 18:00:00 18,7 17,2 9 5 10 6 WNW 1013,2 20 0 0,0
19.10.2018 17:00:00 19,1 16,5 8 4 9 5 WNW 1013,1 20 0 0,2
19.10.2018 16:00:00 19,3 16,6 3 2 23 12 NNE 1013,3 20 0 0,0
19.10.2018 15:00:00 18,5 16,3 6 3 13 7 NE 1013,3 20 0 0,0
19.10.2018 14:00:00 18,7 16,1 8 5 16 9 ENE 1013,6 20 0 -
19.10.2018 13:00:00 18,2 16,1 13 7 23 12 ENE 1013,9 20 0 0,0
19.10.2018 12:00:00 17,6 16,3 14 8 22 12 ENE 1013,8 20 0 0,0
19.10.2018 11:00:00 16,5 15,7 12 7 16 9 NNE 1013,7 11 0 0,2
19.10.2018 10:00:00 16,3 15,5 7 4 11 6 NNE 1013,4 12 0 0,0
19.10.2018 09:00:00 16,0 15,5 11 6 16 9 NNE 1012,4 11 0 1,4
19.10.2018 08:00:00 15,9 15,3 10 5 13 7 N 1011,6 6 0 -
19.10.2018 07:00:00 15,8 15,3 9 5 19 10 NNE 1011,4 11 0 1,0
19.10.2018 06:00:00 15,8 15,6 15 8 17 9 NNW 1011,2 1,2 0 5,0
19.10.2018 05:00:00 16,0 15,7 6 4 8 4 W 1011,9 3,0 0 3,4
19.10.2018 04:00:00 16,3 15,7 3 1 13 7 NW 1011,7 5 0 1,4
19.10.2018 03:00:00 16,0 15,7 8 5 14 8 WNW 1011,5 2,8 0 0,4
19.10.2018 02:00:00 16,3 15,8 9 5 12 7 W 1011,5 5 0 -
19.10.2018 01:00:00 16,2 16,0 7 4 17 9 W 1011,5 5 0 0,0
19.10.2018 00:00:00 16,3 16,1 13 7 16 9 W 1011,4 3,6 0 0,2
18.10.2018 23:00:00 16,3 16,1 13 7 15 8 W 1011,2 8 0 0,2
18.10.2018 22:00:00 16,3 16,1 11 6 13 7 WNW 1010,6 5 0 1,2
18.10.2018 21:00:00 16,3 16,1 9 5 14 8 NNW 1010,6 1,1 0 3,0
18.10.2018 20:00:00 16,1 15,8 7 4 10 6 NNW 1010,5 1,2 0 -
18.10.2018 19:00:00 16,1 15,6 8 4 10 5 WNW 1010,0 2,8 0 3,4
18.10.2018 18:00:00 16,3 15,3 8 4 17 9 WNW 1009,7 5 0 1,2
18.10.2018 17:00:00 16,8 14,6 7 4 9 5 W 1009,6 8 0 1,4
18.10.2018 16:00:00 17,5 14,2 7 4 20 11 WSW 1009,6 9 0 0,6
18.10.2018 15:00:00 18,2 13,3 14 8 21 11 W 1010,0 19 9 0,0
18.10.2018 14:00:00 17,7 12,5 10 5 16 9 W 1010,8 20 2 -
18.10.2018 13:00:00 16,7 12,2 8 5 18 10 W 1011,5 20 14 0,0
18.10.2018 12:00:00 15,1 11,7 12 7 16 9 W 1011,8 13 5 0,0
18.10.2018 11:00:00 14,3 11,7 10 6 15 8 WSW 1012,1 19 2 0,0
18.10.2018 10:00:00 13,3 11,3 13 7 21 11 W 1011,8 16 0 0,0
18.10.2018 09:00:00 12,7 11,1 16 9 21 11 W 1011,6 18 0 0,0
18.10.2018 08:00:00 12,4 11,0 16 9 20 11 W 1011,2 17 0 -
18.10.2018 07:00:00 12,3 10,5 16 9 23 12 W 1011,4 20 0 0,0
18.10.2018 06:00:00 12,2 11,0 16 9 19 11 W 1011,1 20 0 0,0
18.10.2018 05:00:00 12,7 12,1 14 7 16 9 W 1010,9 12 0 0,0
18.10.2018 04:00:00 15,5 11,9 3 1 7 4 SE 1011,4 20 0 0,0
18.10.2018 03:00:00 15,0 11,3 3 2 8 4 SE 1011,7 20 0 0,0
18.10.2018 02:00:00 15,2 11,3 8 5 13 7 SSE 1012,1 20 0 -
18.10.2018 01:00:00 15,7 12,1 9 5 16 9 SE 1012,2 20 0 0,0
18.10.2018 00:00:00 16,2 12,1 8 4 16 9 SE 1012,7 20 0 0,0
17.10.2018 23:00:00 17,6 11,9 10 5 17 9 SE 1012,3 20 0 0,0
17.10.2018 22:00:00 18,0 12,8 9 5 10 5 E 1011,8 20 0 0,0
17.10.2018 21:00:00 19,7 11,7 8 4 13 7 S 1011,5 20 0 0,0
17.10.2018 20:00:00 20,4 11,9 9 5 10 5 S 1011,2 20 4 -
17.10.2018 19:00:00 21,5 12,1 7 4 9 5 S 1011,1 20 53 0,0
17.10.2018 18:00:00 23,2 12,5 5 3 13 7 SSW 1011,0 20 60 0,0
17.10.2018 17:00:00 23,2 12,8 4 2 14 8 WSW 1011,5 20 60 0,0
17.10.2018 16:00:00 22,6 12,5 6 3 13 7 WSW 1012,2 20 60 0,0
17.10.2018 15:00:00 20,8 13,0 3 2 16 9 NW 1013,0 20 60 0,0
17.10.2018 14:00:00 20,0 12,5 8 4 17 9 WSW 1014,1 20 60 -
17.10.2018 13:00:00 18,2 11,8 12 7 27 15 W 1015,3 20 60 0,0
17.10.2018 12:00:00 16,5 11,9 18 10 30 16 WNW 1016,0 20 58 0,0
17.10.2018 11:00:00 15,2 11,3 22 12 29 16 W 1016,5 20 36 0,0
17.10.2018 10:00:00 14,0 11,1 16 9 23 12 W 1016,7 20 0 0,0
17.10.2018 09:00:00 13,4 10,9 16 9 19 10 W 1016,4 20 1 0,0
17.10.2018 08:00:00 13,5 11,2 7 4 12 6 SW 1016,5 20 0 -
17.10.2018 07:00:00 13,7 11,2 8 5 17 9 SW 1016,4 20 0 0,0
17.10.2018 06:00:00 13,5 11,3 11 6 14 8 W 1016,1 20 0 0,0
17.10.2018 05:00:00 13,0 11,6 13 7 18 10 WSW 1015,9 20 0 0,0
17.10.2018 04:00:00 13,2 12,1 14 7 16 8 WNW 1016,1 20 0 0,0
17.10.2018 03:00:00 14,0 12,2 7 4 9 5 WNW 1016,4 20 0 0,0
17.10.2018 02:00:00 14,2 12,1 5 3 11 6 WNW 1016,4 20 0 -
17.10.2018 01:00:00 14,7 12,7 5 3 9 5 N 1016,6 20 0 0,0
17.10.2018 00:00:00 15,3 12,1 3 1 8 4 NNE 1016,6 20 0 0,0
16.10.2018 23:00:00 16,9 11,6 3 2 8 5 E 1016,4 20 0 0,0
16.10.2018 22:00:00 16,8 13,8 5 3 8 5 NE 1016,0 20 0 0,0
16.10.2018 21:00:00 19,2 11,2 7 4 10 5 SW 1015,3 20 0 0,0
16.10.2018 20:00:00 19,3 12,1 8 4 10 5 SW 1014,9 20 0 -
16.10.2018 19:00:00 20,2 11,9 7 4 10 5 SW 1014,2 20 54 0,0
16.10.2018 18:00:00 21,3 12,4 5 3 13 7 SSW 1013,9 20 60 0,0
16.10.2018 17:00:00 21,1 11,4 3 2 11 6 S 1014,0 20 60 0,0
16.10.2018 16:00:00 20,0 12,2 5 3 10 6 ENE 1014,2 20 60 0,0
16.10.2018 15:00:00 19,9 12,1 3 2 13 7 WSW 1014,3 20 60 0,0
16.10.2018 14:00:00 18,3 11,6 6 3 11 6 NE 1014,8 20 60 -
16.10.2018 13:00:00 17,4 11,7 5 3 9 5 N 1015,3 20 60 0,0
16.10.2018 12:00:00 15,6 11,6 3 2 16 8 W 1015,4 20 60 0,0
16.10.2018 11:00:00 13,2 10,5 7 4 11 6 W 1015,3 20 60 0,0
16.10.2018 10:00:00 11,7 8,9 4 2 14 7 NNW 1015,2 20 54 0,0
16.10.2018 09:00:00 10,4 8,8 10 5 13 7 WNW 1014,3 20 24 0,0
16.10.2018 08:00:00 10,6 9,8 7 4 10 6 SW 1013,1 20 0 -
16.10.2018 07:00:00 10,8 9,2 8 4 17 9 W 1012,6 20 0 0,0
16.10.2018 06:00:00 11,2 9,8 16 9 19 10 W 1012,0 20 0 0,0
16.10.2018 05:00:00 11,7 10,6 9 5 12 7 W 1011,2 20 0 0,0
16.10.2018 04:00:00 12,4 10,6 5 3 10 5 W 1011,1 20 0 0,0
16.10.2018 03:00:00 12,8 11,3 9 5 11 6 WNW 1011,1 20 0 0,0
16.10.2018 02:00:00 14,1 11,6 8 4 11 6 WNW 1010,9 20 0 -
16.10.2018 01:00:00 15,4 11,6 11 6 14 8 E 1010,5 20 0 0,0
16.10.2018 00:00:00 14,5 10,9 4 2 10 6 SSE 1010,4 20 0 0,0
15.10.2018 23:00:00 15,9 12,4 9 5 13 7 NE 1009,6 20 0 0,0
15.10.2018 22:00:00 16,4 11,8 12 6 16 9 E 1009,0 20 0 0,0
15.10.2018 21:00:00 16,9 12,0 13 7 19 10 ENE 1008,2 20 0 0,0
15.10.2018 20:00:00 19,4 8,1 6 4 10 5 NNE 1007,2 20 0 -
15.10.2018 19:00:00 19,9 8,0 6 3 14 7 NNE 1006,4 20 51 0,0
15.10.2018 18:00:00 20,9 7,8 12 7 21 11 N 1005,8 20 60 0,0
15.10.2018 17:00:00 21,0 8,0 17 9 29 16 NW 1005,7 20 60 0,0

tt = Température de l'air
td = dewpoint
ff = Vitesse du vent
fx = gusts
dd = Direction du vent
ppp = reduced air pressure
vv = visibility
sd = Ensoleillement
rr = Quantités de précipitations

stations d'obs. à proximité